SCP
0 0 0 0 0 0 0 0 -0 -0 -0 -0 -0 -0 -0 -0 -0 -0 -0 -0 0 -0 0 -0 -0 -0 -0 -0 -0 0 -0 -0 -0 0 0 -0 0 0 0 -0 -0 0 -0 0 0
0 0 0 0 0 0 0 0 0 -0 -0 -0 -0 -0 -0 -0 0 -0 -0 -0 0 -0 0 0 0 0 -0 -0 -0 -0 -0 0 0 0 -0 0 0 -0 -0 -0 -0 0 -0 0 0
0 0 0 0 0 -0 0 0 0 0 -0 -0 -0 -0 -0 -0 0 0 -0 -0 0 0 0 -0 0 -0 -0 -0 -0 -0 -0 0 -0 0 0 0 0 0 0 0 -0 -0 0 0 0
0 0 0 0 0 0 -0 -0 0 0 -0 -0 -0 -0 -0 0 0 0 0 0 0 0 0 -0 -0 -0 -0 -0 -0 -0 -0 0 -0 -0 0 0 0 0 0 0 0 -0 -0 0 0
0 -0 0 0 0 0 -0 0 0 0 -0 -0 0 -0 0 0 0 0 0 0 -0 -0 -0 -0 0 -0 -0 -0 -0 -0 -0 -0 0 0 -0 -0 -0 -0 -0 -0 -0 -1 -1 -0 -0
0 -0 0 0 0 0 -0 0 0 0 0 0 0 0 0 0 0 -0 -0 -0 -0 -0 -0 -0 -0 -0 -0 -0 -0 -0 -0 -0 0 -0 -0 -0 -0 0 -0 -0 -1 -2 -1 -0 -0
0 -0 -0 0 0 -0 -0 0 0 0 0 0 0 0 0 0 0 -0 0 0 -0 -0 -0 -0 -0 -0 -0 -0 -0 -0 -0 -0 -0 -0 -0 -0 -0 -0 -0 -0 -0 -0 -0 -0 0
-0 -0 -0 0 0 -0 -0 0 0 0 0 0 -0 0 0 0 0 -0 -0 0 -0 -0 -0 -0 -0 -0 -0 -0 -0 -0 -0 -0 -0 -0 -0 0 -0 -0 0 0 -0 -0 0 0 1
0 -0 -0 -0 0 -0 -0 0 0 0 0 -0 0 0 0 0 0 -0 -0 -0 -0 -0 -0 -0 -0 -0 -0 -0 -0 -0 0 -0 0 0 0 0 -0 0 0 -0 -0 0 0 0 0
0 0 -0 -0 0 -0 -0 0 0 0 0 0 0 0 0 0 0 0 -0 -0 -0 -0 -0 -0 -0 0 -0 -0 0 0 -0 0 0 0 -0 -0 -0 0 0 0 0 0 0 0 0
0 -0 -0 0 0 -0 0 -0 0 0 0 0 0 0 0 0 0 -0 -0 -0 -0 -0 -0 -0 0 0 0 0 0 0 -0 -0 0 0 0 -0 0 0 0 0 0 0 0 0 0
0 -0 -0 0 0 0 -0 0 0 0 0 0 0 0 0 0 0 -0 -0 -0 -0 0 -0 0 0 0 0 0 0 0 -0 0 0 0 0 0 0 0 0 0 0 0 0 0 0
0 -0 -0 0 0 -0 0 -0 0 0 0 0 0 0 0 0 0 -0 -0 -0 0 0 0 0 0 -0 0 0 0 0 0 0 0 0 0 0 0 0 0 0 0 0 0 0 0
0 0 -0 -0 -0 0 0 0 0 -0 0 0 0 0 0 0 0 0 -0 0 0 0 0 0 0 0 0 0 0 0 0 -0 -0 0 0 0 0 0 0 0 0 0 0 0 -0
0 0 0 0 0 0 0 0 0 0 0 0 0 0 0 0 0 0 0 0 0 0 0 0 0 -0 0 -0 -0 0 0 -0 -0 0 0 0 0 0 0 0 0 0 0 0 0
0 0 0 -0 0 0 0 0 0 0 0 0 0 0 0 0 0 0 0 0 0 0 0 0 -0 -0 0 0 0 -0 -0 -0 0 0 0 0 0 0 0 0 0 0 0 0 0
0 0 0 0 0 0 0 0 0 0 0 0 0 0 0 0 0 0 0 0 0 0 0 0 0 -0 -0 -0 -0 0 0 0 0 0 0 0 0 0 0 0 0 0 0 0 0
0 0 -0 0 0 0 0 0 0 0 0 0 0 0 0 0 0 0 0 0 0 0 0 0 0 -0 -0 0 0 0 0 0 0 0 0 0 0 0 0 0 0 0 0 0 0
0 0 0 0 0 0 0 0 0 0 0 0 0 0 0 0 0 0 0 0 0 0 0 0 0 0 -0 0 0 0 0 0 0 0 0 0 0 0 0 0 0 0 0 0 0
0 0 0 0 0 0 0 0 0 0 0 0 0 0 0 0 0 0 0 0 0 0 0 0 0 0 0 0 -0 0 0 0 0 0 0 0 0 0 0 0 0 0 0 0 0
0 0 0 0 0 0 0 0 0 0 0 0 0 0 0 0 0 0 0 0 0 0 0 0 0 0 0 0 0 0 0 0 0 0 0 0 0 0 0 0 0 0 0 0 0
0 0 0 0 0 0 0 0 0 0 0 0 0 0 0 0 0 0 0 0 0 0 0 0 0 0 0 0 0 0 0 0 0 0 0 0 0 0 0 0 0 0 0 0 0
0 0 0 0 0 0 0 0 0 0 0 0 0 0 0 0 0 0 0 0 0 0 0 0 0 0 0 0 0 0 0 0 0 0 0 0 0 0 0 0 0 0 0 0 0
0 0 0 0 0 0 0 0 0 0 0 0 0 0 0 0 0 0 0 0 0 0 0 0 0 0 0 0 0 0 0 0 0 0 0 0 0 0 0 0 0 0 0 0 0
0 0 0 0 0 0 0 0 0 0 0 0 0 0 0 0 0 0 0 0 0 0 0 0 0 0 0 0 -0 0 0 0 0 0 0 0 0 0 0 0 0 0 0 0 0
0 0 0 0 0 0 0 0 0 0 0 0 0 0 0 0 0 0 0 0 0 0 0 0 0 0 0 0 -0 -0 0 0 0 0 0 0 0 0 0 0 0 0 0 0 0
0 0 0 0 0 0 0 0 0 0 0 0 0 0 0 0 0 0 0 0 0 0 0 0 0 0 0 0 0 0 0 0 0 0 0 0 0 0 0 0 0 0 0 0 0
Wind_Speed_500mb
29 31 35 36 39 41 40 40 39 38 38 36 33 30 23 15 13 2 8 9 14 23 26 20 19 11 12 10 8 7 4 3 3 4 16 31 27 25 15 7 2 14 17 8 7
29 33 35 38 39 42 41 40 39 38 36 33 30 26 19 15 7 12 6 7 17 27 21 15 8 6 8 7 7 5 2 4 3 5 10 17 25 20 16 13 19 21 28 5 21
32 34 36 39 41 43 42 39 38 38 34 31 26 21 15 9 9 8 9 12 22 25 16 7 6 11 6 6 6 5 4 5 7 10 3 8 31 40 29 12 30 49 8 10 13
34 37 38 40 42 43 41 38 37 37 31 29 23 16 10 6 5 5 9 17 22 20 13 11 8 8 6 6 6 5 4 6 13 22 10 11 15 42 46 24 30 27 19 22 22
36 38 41 41 42 43 41 38 37 36 30 26 19 11 5 3 7 4 13 22 21 17 14 10 15 6 2 3 4 6 3 4 16 37 43 46 38 47 48 36 41 48 43 40 38
36 39 43 44 44 43 41 36 38 37 26 18 14 6 4 4 6 5 17 18 16 11 9 11 7 7 4 3 4 7 11 7 21 22 27 53 47 19 36 32 45 52 49 48 53
35 40 42 44 44 41 38 36 40 23 16 8 7 3 6 6 7 6 14 12 8 5 5 4 5 9 8 4 2 5 16 22 15 2 10 16 44 30 24 29 43 49 47 53 54
36 38 43 46 45 42 35 39 25 14 9 3 4 5 3 7 6 15 9 5 1 3 3 2 3 11 3 3 6 6 9 9 14 5 14 6 13 20 21 31 40 41 43 53 55
38 40 41 46 44 35 35 35 12 6 9 3 2 3 5 5 7 13 12 8 3 3 2 4 4 2 2 5 11 6 11 16 10 25 1 6 21 15 23 27 40 38 36 45 49
38 41 41 44 39 32 36 22 10 11 11 5 5 4 6 8 4 6 10 11 6 3 3 1 4 2 1 5 6 5 13 12 12 16 35 36 27 20 24 29 36 35 33 40 49
40 43 42 42 31 30 38 10 8 4 11 5 7 5 5 5 5 8 10 10 5 1 2 4 4 4 2 4 6 9 21 31 18 9 23 26 26 19 21 28 33 35 36 37 38
39 43 40 38 19 23 27 22 24 16 16 11 18 17 10 6 4 10 15 9 4 4 4 3 8 2 4 11 21 27 34 16 12 17 17 26 22 17 16 17 25 21 23 24 24
38 44 41 39 15 20 17 24 27 21 8 10 5 8 6 7 5 9 16 9 4 3 2 6 6 1 5 10 15 17 11 18 10 16 19 17 17 11 12 17 12 6 17 19 18
34 42 41 42 11 25 10 19 27 10 5 1 5 6 9 6 4 7 13 3 3 2 5 5 4 7 6 2 5 11 9 22 28 16 7 5 8 7 10 16 13 10 15 12 11
32 40 43 37 33 20 11 19 15 2 4 4 6 7 13 6 2 4 10 5 4 2 5 5 6 10 5 6 3 4 9 23 22 14 8 5 7 10 2 14 10 9 13 14 16
31 36 42 41 33 14 17 16 4 3 5 5 8 8 8 1 3 5 4 4 4 5 5 4 4 2 0 6 9 20 19 21 7 5 5 5 6 8 2 3 5 4 7 14 17
33 33 40 38 31 22 14 2 0 5 5 7 8 7 6 4 2 4 8 9 3 7 6 5 6 5 3 7 14 8 7 5 6 7 4 3 8 6 3 6 11 12 10 14 17
36 35 37 24 13 7 4 2 1 4 2 3 7 11 8 8 5 5 6 8 13 5 5 4 9 12 14 5 5 10 4 2 2 3 3 3 4 6 9 12 7 4 7 10 17
37 30 17 5 6 7 2 3 6 9 4 4 9 8 3 5 5 6 10 4 10 7 3 6 6 1 14 5 4 7 4 4 8 3 6 1 2 5 10 13 12 10 12 19 22
36 30 6 4 5 6 1 6 6 6 6 1 7 4 11 4 6 5 5 4 4 12 6 4 8 5 4 5 27 5 11 1 2 4 7 5 6 6 16 11 9 12 16 18 17
30 17 5 3 9 3 4 7 9 14 11 8 7 8 7 8 7 6 4 4 6 4 10 4 1 3 3 12 8 5 4 11 5 5 6 7 3 10 15 10 10 15 15 17 21
14 7 6 4 5 3 5 7 10 11 2 4 5 6 7 7 8 6 7 5 14 2 6 5 4 6 9 3 2 14 8 5 6 1 2 5 3 9 9 13 13 13 16 21 23
10 11 4 3 3 3 8 6 8 6 5 5 3 2 4 8 11 6 5 5 12 8 5 4 6 9 10 8 5 11 9 5 5 1 3 7 6 7 6 6 8 13 18 22 22
9 4 3 4 2 4 7 6 8 10 7 2 6 7 7 8 9 11 10 10 10 13 14 10 7 6 6 8 4 9 19 8 5 4 5 5 5 6 2 4 6 13 18 19 25
6 3 2 0 3 4 2 4 6 6 5 6 6 6 9 10 11 10 8 7 13 8 9 6 8 12 21 22 27 22 25 27 17 5 9 8 3 2 5 10 13 16 23 26 31
5 3 4 5 6 4 5 4 5 5 8 4 12 7 6 10 5 14 14 3 4 10 7 6 9 12 12 16 25 32 20 13 13 10 12 4 2 4 10 15 24 27 22 29 29
14 9 4 3 2 5 5 5 5 10 8 9 14 16 22 9 26 30 32 26 12 5 6 5 12 6 9 6 2 8 15 14 4 4 6 10 9 13 16 24 30 26 26 30 20
Wind_Direction_500mb
339 337 336 341 342 334 335 335 333 333 333 332 335 340 339 350 335 34 95 128 138 132 138 143 143 143 159 177 173 159 248 300 348 335 348 351 8 17 333 297 307 60 33 16 214
339 338 338 341 341 334 335 334 330 327 331 328 335 339 345 1 55 73 91 155 138 138 139 146 141 160 143 151 164 195 306 297 297 282 330 55 35 340 350 348 63 40 24 109 176
340 339 338 339 341 334 333 332 327 323 328 326 336 335 355 11 100 50 66 145 145 138 132 143 161 146 128 169 169 156 263 7 2 325 339 92 59 34 5 22 332 305 298 148 146
340 339 336 338 337 332 331 330 322 321 325 323 331 328 6 77 103 46 79 143 142 128 118 93 117 121 136 172 165 243 295 251 350 9 88 76 82 51 44 28 27 64 104 88 60
337 336 334 337 335 333 331 328 318 319 318 314 317 316 57 114 87 68 116 133 127 112 105 116 76 128 168 184 192 203 298 4 63 91 91 83 68 63 47 58 70 78 75 71 61
336 335 335 338 335 333 329 326 319 319 314 307 293 295 101 120 107 120 133 126 124 118 99 79 66 50 109 299 283 160 23 56 91 116 95 71 53 67 43 69 71 72 68 63 61
336 335 335 336 333 332 331 324 321 328 335 305 277 228 180 119 145 130 146 135 125 107 72 45 37 33 323 206 172 159 120 116 34 335 157 336 41 43 47 77 76 73 72 68 61
336 336 335 339 336 336 329 327 323 342 336 345 266 122 171 151 169 170 168 172 123 358 318 152 48 345 186 274 96 182 157 163 35 355 24 129 77 34 50 83 77 73 70 71 64
337 338 337 338 339 334 334 333 332 338 357 335 170 61 117 66 141 179 188 195 307 63 21 261 299 25 245 235 155 55 114 99 104 16 220 112 125 51 42 70 70 71 75 78 76
335 339 339 342 341 338 345 337 312 309 317 341 240 141 135 125 135 190 190 209 234 283 129 146 79 346 52 352 63 69 120 78 85 47 97 99 104 92 73 70 70 69 64 68 77
335 339 339 346 347 345 359 1 347 343 310 242 253 263 161 36 186 182 187 191 211 67 105 6 176 118 314 104 84 107 118 114 118 138 69 94 99 83 82 80 71 60 58 56 54
334 336 341 346 353 357 1 55 27 321 319 276 260 249 250 295 180 183 188 181 150 116 138 168 89 281 114 132 106 126 123 112 99 95 106 121 102 86 83 88 87 88 87 83 76
332 334 340 351 343 354 357 19 355 333 255 290 228 238 179 170 214 175 171 167 122 107 144 130 79 176 147 141 133 161 169 174 150 118 94 128 117 123 73 104 117 170 88 79 79
332 334 340 348 347 344 338 341 334 316 300 239 209 182 189 185 257 194 186 163 117 74 166 65 347 105 76 124 174 171 127 161 145 170 157 282 159 128 111 126 97 100 123 103 107
331 331 332 338 329 333 323 323 326 225 114 195 136 138 153 184 174 119 160 169 144 72 236 58 58 39 57 7 160 86 74 149 136 101 152 61 271 111 189 154 101 142 131 115 89
323 326 324 327 330 323 321 322 183 17 172 144 109 135 148 311 45 131 162 112 103 102 38 35 338 60 133 82 79 137 92 93 108 138 169 33 295 138 176 338 281 317 101 83 67
314 320 319 317 313 304 315 270 116 241 269 139 129 143 152 163 86 62 70 57 65 149 51 39 49 351 9 138 119 179 160 166 171 206 47 345 227 29 287 313 287 323 27 35 31
311 320 317 312 323 313 307 126 291 268 218 15 116 115 174 154 45 59 104 83 52 26 106 112 153 5 353 41 88 47 2 33 267 269 95 154 234 76 342 336 282 95 79 44 32
312 324 319 316 317 345 272 116 231 228 34 16 112 125 172 145 127 93 50 67 32 338 92 133 90 251 39 60 326 137 78 54 103 45 232 32 195 207 27 30 64 66 50 31 25
320 328 306 300 319 328 197 234 258 251 352 259 144 168 173 152 111 91 49 354 30 15 289 116 127 20 55 182 55 43 123 224 67 283 297 186 256 272 345 356 34 39 48 49 34
321 323 337 329 331 303 249 242 288 283 234 204 182 125 127 131 97 84 40 48 10 25 66 96 335 92 269 32 23 99 93 67 85 331 302 302 138 352 325 2 66 72 53 23 9
307 278 311 248 252 99 226 195 317 282 306 267 130 110 132 118 86 101 113 351 338 322 61 41 82 80 95 59 9 61 51 37 299 211 74 318 94 6 61 62 56 42 14 2 357
283 273 266 216 252 257 274 320 261 292 315 0 124 78 73 122 108 108 110 47 38 61 77 149 39 130 148 154 86 48 22 58 104 284 112 302 74 109 91 72 27 5 0 353 355
293 288 265 200 184 272 25 298 296 277 257 280 104 113 111 68 34 134 122 53 49 79 89 96 69 31 162 70 56 59 16 9 355 360 109 34 128 166 210 294 340 356 354 358 360
256 272 310 203 247 276 325 297 290 313 332 7 76 84 125 109 104 104 108 120 57 53 51 67 84 90 80 88 87 80 55 49 67 30 18 97 77 202 261 294 313 334 351 357 355
244 269 284 275 282 257 168 235 270 334 337 355 109 80 89 134 178 156 140 113 111 67 66 21 125 122 66 102 95 75 53 54 53 55 88 82 45 9 310 311 326 339 349 351 346
223 254 289 292 257 202 209 261 296 335 59 40 120 102 66 58 101 97 93 83 85 101 103 70 145 151 131 188 299 68 26 43 48 40 2 4 18 349 345 341 338 343 350 341 337
Wind_Speed_850mb
29 31 35 36 39 41 40 40 39 38 38 36 33 30 23 15 13 2 8 9 14 23 26 20 19 11 12 10 8 7 4 3 3 4 16 31 27 25 15 7 2 14 17 8 7
29 33 35 38 39 42 41 40 39 38 36 33 30 26 19 15 7 12 6 7 17 27 21 15 8 6 8 7 7 5 2 4 3 5 10 17 25 20 16 13 19 21 28 5 21
32 34 36 39 41 43 42 39 38 38 34 31 26 21 15 9 9 8 9 12 22 25 16 7 6 11 6 6 6 5 4 5 7 10 3 8 31 40 29 12 30 49 8 10 13
34 37 38 40 42 43 41 38 37 37 31 29 23 16 10 6 5 5 9 17 22 20 13 11 8 8 6 6 6 5 4 6 13 22 10 11 15 42 46 24 30 27 19 22 22
36 38 41 41 42 43 41 38 37 36 30 26 19 11 5 3 7 4 13 22 21 17 14 10 15 6 2 3 4 6 3 4 16 37 43 46 38 47 48 36 41 48 43 40 38
36 39 43 44 44 43 41 36 38 37 26 18 14 6 4 4 6 5 17 18 16 11 9 11 7 7 4 3 4 7 11 7 21 22 27 53 47 19 36 32 45 52 49 48 53
35 40 42 44 44 41 38 36 40 23 16 8 7 3 6 6 7 6 14 12 8 5 5 4 5 9 8 4 2 5 16 22 15 2 10 16 44 30 24 29 43 49 47 53 54
36 38 43 46 45 42 35 39 25 14 9 3 4 5 3 7 6 15 9 5 1 3 3 2 3 11 3 3 6 6 9 9 14 5 14 6 13 20 21 31 40 41 43 53 55
38 40 41 46 44 35 35 35 12 6 9 3 2 3 5 5 7 13 12 8 3 3 2 4 4 2 2 5 11 6 11 16 10 25 1 6 21 15 23 27 40 38 36 45 49
38 41 41 44 39 32 36 22 10 11 11 5 5 4 6 8 4 6 10 11 6 3 3 1 4 2 1 5 6 5 13 12 12 16 35 36 27 20 24 29 36 35 33 40 49
40 43 42 42 31 30 38 10 8 4 11 5 7 5 5 5 5 8 10 10 5 1 2 4 4 4 2 4 6 9 21 31 18 9 23 26 26 19 21 28 33 35 36 37 38
39 43 40 38 19 23 27 22 24 16 16 11 18 17 10 6 4 10 15 9 4 4 4 3 8 2 4 11 21 27 34 16 12 17 17 26 22 17 16 17 25 21 23 24 24
38 44 41 39 15 20 17 24 27 21 8 10 5 8 6 7 5 9 16 9 4 3 2 6 6 1 5 10 15 17 11 18 10 16 19 17 17 11 12 17 12 6 17 19 18
34 42 41 42 11 25 10 19 27 10 5 1 5 6 9 6 4 7 13 3 3 2 5 5 4 7 6 2 5 11 9 22 28 16 7 5 8 7 10 16 13 10 15 12 11
32 40 43 37 33 20 11 19 15 2 4 4 6 7 13 6 2 4 10 5 4 2 5 5 6 10 5 6 3 4 9 23 22 14 8 5 7 10 2 14 10 9 13 14 16
31 36 42 41 33 14 17 16 4 3 5 5 8 8 8 1 3 5 4 4 4 5 5 4 4 2 0 6 9 20 19 21 7 5 5 5 6 8 2 3 5 4 7 14 17
33 33 40 38 31 22 14 2 0 5 5 7 8 7 6 4 2 4 8 9 3 7 6 5 6 5 3 7 14 8 7 5 6 7 4 3 8 6 3 6 11 12 10 14 17
36 35 37 24 13 7 4 2 1 4 2 3 7 11 8 8 5 5 6 8 13 5 5 4 9 12 14 5 5 10 4 2 2 3 3 3 4 6 9 12 7 4 7 10 17
37 30 17 5 6 7 2 3 6 9 4 4 9 8 3 5 5 6 10 4 10 7 3 6 6 1 14 5 4 7 4 4 8 3 6 1 2 5 10 13 12 10 12 19 22
36 30 6 4 5 6 1 6 6 6 6 1 7 4 11 4 6 5 5 4 4 12 6 4 8 5 4 5 27 5 11 1 2 4 7 5 6 6 16 11 9 12 16 18 17
30 17 5 3 9 3 4 7 9 14 11 8 7 8 7 8 7 6 4 4 6 4 10 4 1 3 3 12 8 5 4 11 5 5 6 7 3 10 15 10 10 15 15 17 21
14 7 6 4 5 3 5 7 10 11 2 4 5 6 7 7 8 6 7 5 14 2 6 5 4 6 9 3 2 14 8 5 6 1 2 5 3 9 9 13 13 13 16 21 23
10 11 4 3 3 3 8 6 8 6 5 5 3 2 4 8 11 6 5 5 12 8 5 4 6 9 10 8 5 11 9 5 5 1 3 7 6 7 6 6 8 13 18 22 22
9 4 3 4 2 4 7 6 8 10 7 2 6 7 7 8 9 11 10 10 10 13 14 10 7 6 6 8 4 9 19 8 5 4 5 5 5 6 2 4 6 13 18 19 25
6 3 2 0 3 4 2 4 6 6 5 6 6 6 9 10 11 10 8 7 13 8 9 6 8 12 21 22 27 22 25 27 17 5 9 8 3 2 5 10 13 16 23 26 31
5 3 4 5 6 4 5 4 5 5 8 4 12 7 6 10 5 14 14 3 4 10 7 6 9 12 12 16 25 32 20 13 13 10 12 4 2 4 10 15 24 27 22 29 29
14 9 4 3 2 5 5 5 5 10 8 9 14 16 22 9 26 30 32 26 12 5 6 5 12 6 9 6 2 8 15 14 4 4 6 10 9 13 16 24 30 26 26 30 20
Wind_Direction_850mb
339 337 336 341 342 334 335 335 333 333 333 332 335 340 339 350 335 34 95 128 138 132 138 143 143 143 159 177 173 159 248 300 348 335 348 351 8 17 333 297 307 60 33 16 214
339 338 338 341 341 334 335 334 330 327 331 328 335 339 345 1 55 73 91 155 138 138 139 146 141 160 143 151 164 195 306 297 297 282 330 55 35 340 350 348 63 40 24 109 176
340 339 338 339 341 334 333 332 327 323 328 326 336 335 355 11 100 50 66 145 145 138 132 143 161 146 128 169 169 156 263 7 2 325 339 92 59 34 5 22 332 305 298 148 146
340 339 336 338 337 332 331 330 322 321 325 323 331 328 6 77 103 46 79 143 142 128 118 93 117 121 136 172 165 243 295 251 350 9 88 76 82 51 44 28 27 64 104 88 60
337 336 334 337 335 333 331 328 318 319 318 314 317 316 57 114 87 68 116 133 127 112 105 116 76 128 168 184 192 203 298 4 63 91 91 83 68 63 47 58 70 78 75 71 61
336 335 335 338 335 333 329 326 319 319 314 307 293 295 101 120 107 120 133 126 124 118 99 79 66 50 109 299 283 160 23 56 91 116 95 71 53 67 43 69 71 72 68 63 61
336 335 335 336 333 332 331 324 321 328 335 305 277 228 180 119 145 130 146 135 125 107 72 45 37 33 323 206 172 159 120 116 34 335 157 336 41 43 47 77 76 73 72 68 61
336 336 335 339 336 336 329 327 323 342 336 345 266 122 171 151 169 170 168 172 123 358 318 152 48 345 186 274 96 182 157 163 35 355 24 129 77 34 50 83 77 73 70 71 64
337 338 337 338 339 334 334 333 332 338 357 335 170 61 117 66 141 179 188 195 307 63 21 261 299 25 245 235 155 55 114 99 104 16 220 112 125 51 42 70 70 71 75 78 76
335 339 339 342 341 338 345 337 312 309 317 341 240 141 135 125 135 190 190 209 234 283 129 146 79 346 52 352 63 69 120 78 85 47 97 99 104 92 73 70 70 69 64 68 77
335 339 339 346 347 345 359 1 347 343 310 242 253 263 161 36 186 182 187 191 211 67 105 6 176 118 314 104 84 107 118 114 118 138 69 94 99 83 82 80 71 60 58 56 54
334 336 341 346 353 357 1 55 27 321 319 276 260 249 250 295 180 183 188 181 150 116 138 168 89 281 114 132 106 126 123 112 99 95 106 121 102 86 83 88 87 88 87 83 76
332 334 340 351 343 354 357 19 355 333 255 290 228 238 179 170 214 175 171 167 122 107 144 130 79 176 147 141 133 161 169 174 150 118 94 128 117 123 73 104 117 170 88 79 79
332 334 340 348 347 344 338 341 334 316 300 239 209 182 189 185 257 194 186 163 117 74 166 65 347 105 76 124 174 171 127 161 145 170 157 282 159 128 111 126 97 100 123 103 107
331 331 332 338 329 333 323 323 326 225 114 195 136 138 153 184 174 119 160 169 144 72 236 58 58 39 57 7 160 86 74 149 136 101 152 61 271 111 189 154 101 142 131 115 89
323 326 324 327 330 323 321 322 183 17 172 144 109 135 148 311 45 131 162 112 103 102 38 35 338 60 133 82 79 137 92 93 108 138 169 33 295 138 176 338 281 317 101 83 67
314 320 319 317 313 304 315 270 116 241 269 139 129 143 152 163 86 62 70 57 65 149 51 39 49 351 9 138 119 179 160 166 171 206 47 345 227 29 287 313 287 323 27 35 31
311 320 317 312 323 313 307 126 291 268 218 15 116 115 174 154 45 59 104 83 52 26 106 112 153 5 353 41 88 47 2 33 267 269 95 154 234 76 342 336 282 95 79 44 32
312 324 319 316 317 345 272 116 231 228 34 16 112 125 172 145 127 93 50 67 32 338 92 133 90 251 39 60 326 137 78 54 103 45 232 32 195 207 27 30 64 66 50 31 25
320 328 306 300 319 328 197 234 258 251 352 259 144 168 173 152 111 91 49 354 30 15 289 116 127 20 55 182 55 43 123 224 67 283 297 186 256 272 345 356 34 39 48 49 34
321 323 337 329 331 303 249 242 288 283 234 204 182 125 127 131 97 84 40 48 10 25 66 96 335 92 269 32 23 99 93 67 85 331 302 302 138 352 325 2 66 72 53 23 9
307 278 311 248 252 99 226 195 317 282 306 267 130 110 132 118 86 101 113 351 338 322 61 41 82 80 95 59 9 61 51 37 299 211 74 318 94 6 61 62 56 42 14 2 357
283 273 266 216 252 257 274 320 261 292 315 0 124 78 73 122 108 108 110 47 38 61 77 149 39 130 148 154 86 48 22 58 104 284 112 302 74 109 91 72 27 5 0 353 355
293 288 265 200 184 272 25 298 296 277 257 280 104 113 111 68 34 134 122 53 49 79 89 96 69 31 162 70 56 59 16 9 355 360 109 34 128 166 210 294 340 356 354 358 360
256 272 310 203 247 276 325 297 290 313 332 7 76 84 125 109 104 104 108 120 57 53 51 67 84 90 80 88 87 80 55 49 67 30 18 97 77 202 261 294 313 334 351 357 355
244 269 284 275 282 257 168 235 270 334 337 355 109 80 89 134 178 156 140 113 111 67 66 21 125 122 66 102 95 75 53 54 53 55 88 82 45 9 310 311 326 339 349 351 346
223 254 289 292 257 202 209 261 296 335 59 40 120 102 66 58 101 97 93 83 85 101 103 70 145 151 131 188 299 68 26 43 48 40 2 4 18 349 345 341 338 343 350 341 337